Terminal Aerodrome Forecast
Issued by NWS

Home | Current Version | Previous Version | Text Only | Print | Product List | Glossary On
Versions: 1 2 3 4 5 6 7 8 9 10 11 12 13 14 15 16 17 18 19 20 21 22 23 24 25 26 27 28 29 30 31 32 33 34 35 36 37 38 39 40 41 42 43 44 45 46 47 48 49 50
000
FTUS41 KCTP 011146
TAFUNV
TAF
KUNV 011146Z 0112/0212 00000KT 1/4SM FG VV001
     FM011230 00000KT 1 1/2SM BR BKN008
     FM011330 17004KT P6SM SCT060
     FM011800 16006KT P6SM VCSH BKN060
     FM020800 00000KT 2SM BR FEW008 OVC060=

USA.gov is the U.S. government's official web portal to all federal, state and local government web resources and services.